[[{"header":{"parameterUnit":"m.s-1","parameterCategory":1,"la1":30.2991,"la2":30.254,"lo1":-89.0895,"lo2":-89.0444,"dy":0.0017,"dx":0.0017,"nx":28,"ny":28,"refTime":"2024-05-06T03:00:00:Z","depth":0,"parameterNumber":2,"parameterNumberName":"U-component_of_WINDS"},"data":[0,0,0,0,0,0,0,0,0,0,0,0,0,0,0,0,0,0,0,0,0,0,0,0,0,0,0,0,0,0,0,0,0,0,0,0,0,0,0,0,0,0,0,0,0,0,0,0,0,0,0,0,0,0,0,0,0,0,-1.5341,-1.5341,0,-1.5341,-1.5341,-1.5341,-1.5328,-1.5328,-1.5327,-1.5327,-1.5326,-1.5326,-1.5327,0,0,0,0,0,0,0,0,0,0,0,0,0,-1.533,-1.533,-1.5341,-1.5341,-1.5341,-1.5341,-1.5341,-1.5341,-1.5328,-1.5328,-1.5327,-1.5327,-1.5326,-1.5326,-1.5327,0,0,0,0,0,0,0,0,0,0,0,0,0,-1.5333,-1.5331,-1.5341,-1.5335,-1.5334,-1.5341,-1.5341,-1.5341,-1.5328,-1.5327,-1.5327,-1.5326,-1.5326,-1.5326,-1.5327,-1.534,0,0,-1.5328,-1.5328,0,0,0,0,0,0,0,0,-1.5333,-1.5333,-1.5336,-1.5335,-1.5334,-1.5334,-1.5337,-1.5341,-1.5328,-1.533,-1.5327,-1.5326,-1.5329,-1.5329,-1.533,-1.534,-1.534,-1.5328,-1.5328,-1.5328,-1.5329,0,0,0,0,0,0,0,-1.5333,-1.5333,-1.5341,-1.5336,-1.5335,-1.5332,-1.5332,-1.5338,-1.5332,-1.533,-1.5329,-1.5329,-1.5329,-1.533,-1.533,-1.534,-1.5328,-1.5328,-1.5329,-1.5329,-1.5361,-1.5362,0,0,0,0,0,0,-1.5333,-1.5333,-1.5341,-1.5341,-1.5332,-1.5332,-1.5332,-1.5335,-1.5332,-1.5332,-1.533,-1.5329,-1.5329,-1.533,-1.533,-1.5346,-1.5328,-1.5329,-1.5329,-1.5361,-1.5361,-1.5362,0,0,0,0,0,0,-1.5333,-1.5334,-1.5341,-1.5337,-1.5338,-1.5333,-1.5336,-1.5335,-1.5336,-1.5332,-1.5331,-1.5332,-1.5329,-1.5329,-1.5338,-1.5345,-1.5329,-1.533,-1.536,-1.5361,-1.5362,-1.5377,0,0,0,0,0,0,-1.5333,-1.5334,-1.5339,-1.5337,-1.5338,-1.5349,-1.5336,-1.5335,-1.5337,-1.5336,-1.5334,-1.5333,-1.5329,-1.5337,-1.5338,-1.5346,-1.533,-1.5359,-1.536,-1.5361,-1.5375,-1.5378,-1.538,0,0,0,0,0,-1.5333,-1.5343,-1.5339,-1.534,-1.5344,-1.5349,-1.5349,-1.5344,-1.5338,-1.5342,-1.534,-1.5333,-1.5345,-1.5338,-1.5339,-1.5347,-1.5359,-1.536,-1.5361,-1.5374,-1.5377,-1.538,0,0,0,0,0,0,-1.5345,-1.5342,-1.5338,-1.5348,-1.5349,-1.5347,-1.5352,-1.5347,-1.535,-1.5348,-1.5342,-1.5341,-1.5351,-1.535,-1.5343,-1.536,-1.5351,-1.5352,-1.536,-1.5363,-1.5365,-1.5365,-1.533,0,0,0,0,0,-1.5349,-1.5353,-1.5351,-1.536,-1.5361,-1.5357,-1.5359,-1.5355,-1.5355,-1.5355,-1.5354,-1.5354,-1.5358,-1.5361,-1.5364,-1.5376,-1.5375,-1.5382,-1.5384,-1.5386,-1.5387,-1.5394,-1.5397,-1.5366,-1.5366,-1.5366,0,0,-1.5356,-1.5356,-1.5359,-1.5362,-1.5362,-1.5368,-1.5357,-1.5362,-1.5366,-1.5356,-1.5364,-1.5363,-1.5364,-1.5374,-1.5378,-1.5373,-1.5396,-1.5388,-1.5389,-1.5389,-1.5396,-1.5398,-1.5401,-1.5367,-1.5367,-1.5367,0,0,-1.5373,-1.5373,-1.5381,-1.5381,-1.5382,-1.538,-1.5382,-1.5381,-1.538,-1.5388,-1.5381,-1.5386,-1.5393,-1.5393,-1.5395,-1.5414,-1.5408,-1.5416,-1.5427,-1.5434,-1.5436,-1.5438,-1.5445,-1.5447,-1.5417,-1.5417,-1.5417,0,-1.5382,-1.5389,-1.5385,-1.5391,-1.5393,-1.5386,-1.5394,-1.5395,-1.5397,-1.5398,-1.5393,-1.5402,-1.5402,-1.5412,-1.5418,-1.5419,-1.5421,-1.5415,-1.5436,-1.5438,-1.544,-1.5446,-1.5449,-1.5418,-1.5418,-1.5418,-1.5417,0,-1.5401,-1.5406,-1.5413,-1.5415,-1.5418,-1.5425,-1.5422,-1.5426,-1.5423,-1.5421,-1.543,-1.543,-1.5433,-1.5436,-1.5432,-1.5446,-1.5443,-1.5437,-1.5427,-1.5444,-1.545,-1.5452,-1.5419,-1.5419,-1.5418,-1.5418,0,0,-1.5423,-1.5425,-1.5427,-1.5428,-1.543,-1.5434,-1.5441,-1.5445,-1.5449,-1.5451,-1.5457,-1.5464,-1.5459,-1.546,-1.5457,-1.5463,-1.5479,-1.5457,-1.5456,-1.546,-1.5495,-1.5498,-1.5501,-1.5475,-1.5476,-1.5476,-1.5494,0,-1.5439,-1.5451,-1.5448,-1.5461,-1.5466,-1.546,-1.5467,-1.5468,-1.5468,-1.5472,-1.5472,-1.5477,-1.547,-1.5471,-1.5477,-1.5476,-1.5485,-1.5474,-1.5481,-1.5481,-1.5479,-1.5504,-1.5508,-1.5525,-1.5497,-1.5497,-1.5497,0,-1.5458,-1.5462,-1.5475,-1.5477,-1.5479,-1.5485,-1.5489,-1.5493,-1.5496,-1.5495,-1.5498,-1.5494,-1.5502,-1.5493,-1.5504,-1.5496,-1.5499,-1.5499,-1.55,-1.5499,-1.5489,-1.5503,-1.553,-1.5532,-1.5501,-1.5501,-1.55,0,-1.5473,-1.5481,-1.549,-1.5492,-1.5494,-1.5498,-1.5499,-1.5501,-1.5504,-1.5508,-1.551,-1.5515,-1.5517,-1.5521,-1.5519,-1.5513,-1.553,-1.5521,-1.553,-1.553,-1.5532,-1.5532,-1.5559,-1.5536,-1.5536,-1.5536,-1.5536,0,-1.549,-1.5498,-1.5497,-1.5502,-1.5511,-1.5509,-1.5518,-1.5518,-1.5521,-1.5526,-1.5522,-1.5527,-1.5524,-1.553,-1.5528,-1.5538,-1.5539,-1.5538,-1.5538,-1.5538,-1.5538,-1.5539,-1.5537,-1.5536,-1.5536,-1.5536,-1.5536,0,-1.5507,-1.5506,-1.5516,-1.5518,-1.5518,-1.5525,-1.5527,-1.5532,-1.5532,-1.5539,-1.5541,-1.5541,-1.5547,-1.5546,-1.5552,-1.5552,-1.5563,-1.5561,-1.5562,-1.5561,-1.557,-1.5569,-1.5597,-1.5601,-1.5576,-1.5576,-1.5577,0,-1.5517,-1.5524,-1.5527,-1.553,-1.5532,-1.5538,-1.5541,-1.554,-1.5543,-1.5548,-1.5553,-1.5559,-1.5563,-1.5574,-1.5574,-1.558,-1.5578,-1.5587,-1.5578,-1.5579,-1.5577,-1.5577,-1.5577,-1.5589,-1.5589,-1.5589,-1.5589,0,-1.5536,-1.5536,-1.5541,-1.5547,-1.5551,-1.5555,-1.5559,-1.5562,-1.5561,-1.5566,-1.5572,-1.5576,-1.5584,-1.559,-1.5595,-1.5597,-1.5593,-1.5593,-1.5595,-1.5595,-1.5595,-1.5595,-1.5566,-1.5592,-1.5591,-1.5591,-1.5591,-1.5591,-1.555,-1.5555,-1.5559,-1.5565,-1.5568,-1.5572,-1.5577,-1.5578,-1.5584,-1.559,-1.5589,-1.5597,-1.56,-1.5607,-1.561,-1.5616,-1.5612,-1.5615,-1.5616,-1.5616,-1.5617,-1.5595,-1.5617,-1.5617,-1.5617,-1.5617,-1.5617,0,-1.5568,-1.557,-1.5576,-1.5582,-1.5587,-1.5584,-1.5589,-1.5593,-1.56,-1.5604,-1.5609,-1.5617,-1.5624,-1.5625,-1.5632,-1.5636,-1.5635,-1.5638,-1.5637,-1.5637,-1.562,-1.5618,-1.5639,-1.5639,-1.5639,-1.5639,-1.5639,-1.5639,-1.5578,-1.5587,-1.5588,-1.5599,-1.5601,-1.5609,-1.5612,-1.5616,-1.5619,-1.5628,-1.5634,-1.5635,-1.5638,-1.5645,-1.5651,-1.5651,-1.5654,-1.5657,-1.5657,-1.5641,-1.5638,-1.5636,-1.5634,-1.5658,-1.5658,-1.5674,-1.5674,-1.5674]},{"header":{"parameterUnit":"m.s-1","parameterCategory":1,"la1":30.2991,"la2":30.254,"lo1":-89.0895,"lo2":-89.0444,"dy":0.0017,"dx":0.0017,"nx":28,"ny":28,"refTime":"2024-05-06T03:00:00:Z","depth":0,"parameterNumber":3,"parameterNumberName":"V-component_of_WINDS"},"data":[0,0,0,0,0,0,0,0,0,0,0,0,0,0,0,0,0,0,0,0,0,0,0,0,0,0,0,0,0,0,0,0,0,0,0,0,0,0,0,0,0,0,0,0,0,0,0,0,0,0,0,0,0,0,0,0,0,0,6.3361,6.3361,0,6.3353,6.3352,6.3352,6.3352,6.3352,6.3352,6.3352,6.3338,6.3337,6.3337,0,0,0,0,0,0,0,0,0,0,0,0,0,6.3372,6.3372,6.3361,6.3361,6.3361,6.3353,6.3352,6.3352,6.3352,6.3352,6.3352,6.3352,6.3338,6.3338,6.3337,0,0,0,0,0,0,0,0,0,0,0,0,0,6.3366,6.3372,6.3361,6.336,6.3359,6.3353,6.3352,6.3352,6.3352,6.3352,6.3352,6.3352,6.3338,6.3338,6.3337,6.3329,0,0,6.3335,6.3334,0,0,0,0,0,0,0,0,6.3366,6.3366,6.336,6.336,6.3359,6.3354,6.3351,6.3344,6.3352,6.3354,6.3352,6.3352,6.3343,6.3342,6.3339,6.3328,6.3328,6.3335,6.3334,6.3334,6.3334,0,0,0,0,0,0,0,6.3367,6.3366,6.3357,6.336,6.3359,6.3358,6.3357,6.335,6.3347,6.3354,6.3354,6.3354,6.3342,6.334,6.3339,6.3328,6.3335,6.3334,6.3334,6.3333,6.3312,6.3312,0,0,0,0,0,0,6.3368,6.3366,6.3358,6.3357,6.3364,6.3358,6.3357,6.3355,6.3348,6.3347,6.3353,6.3354,6.3341,6.334,6.3339,6.333,6.3334,6.3333,6.3333,6.3312,6.3312,6.3312,0,0,0,0,0,0,6.3368,6.3367,6.3358,6.3362,6.3361,6.3358,6.3355,6.3355,6.3353,6.3347,6.3346,6.3352,6.3341,6.334,6.3332,6.333,6.3333,6.3332,6.3312,6.3312,6.3312,6.3313,0,0,0,0,0,0,6.3369,6.3368,6.3365,6.3362,6.336,6.3353,6.3355,6.3355,6.3352,6.3352,6.3345,6.3344,6.3341,6.3333,6.3332,6.3329,6.3332,6.3312,6.3312,6.3312,6.3313,6.3313,6.3312,0,0,0,0,0,6.3369,6.3364,6.3365,6.3364,6.3358,6.3353,6.3352,6.335,6.3352,6.3349,6.3346,6.3344,6.3331,6.3333,6.3331,6.3327,6.3312,6.3312,6.3312,6.3313,6.3313,6.3312,0,0,0,0,0,0,6.3364,6.3363,6.3364,6.3358,6.3356,6.3353,6.3349,6.3349,6.3345,6.3345,6.3342,6.334,6.3333,6.3329,6.3332,6.3321,6.3322,6.3321,6.3323,6.3323,6.3322,6.3323,6.3331,0,0,0,0,0,6.3363,6.3361,6.3359,6.3354,6.3353,6.3352,6.3349,6.3349,6.3345,6.3343,6.334,6.3335,6.333,6.3326,6.3321,6.3313,6.3311,6.331,6.3309,6.3309,6.3308,6.3305,6.3305,6.3311,6.3311,6.3311,0,0,6.3359,6.3359,6.3357,6.3353,6.3351,6.3348,6.335,6.3346,6.3344,6.3342,6.3336,6.3333,6.3328,6.3321,6.3317,6.3317,6.3307,6.3309,6.3309,6.3308,6.3305,6.3304,6.3304,6.331,6.331,6.331,0,0,6.3351,6.335,6.3347,6.3346,6.3344,6.3343,6.3343,6.334,6.3339,6.3333,6.3333,6.3329,6.332,6.3316,6.3313,6.3308,6.3306,6.3306,6.3304,6.3301,6.33,6.33,6.3298,6.3298,6.3305,6.3305,6.3305,0,6.3346,6.3343,6.3344,6.3341,6.334,6.3342,6.3338,6.3336,6.3331,6.333,6.3331,6.3321,6.3317,6.3311,6.331,6.3307,6.3306,6.3306,6.3301,6.33,6.33,6.3298,6.3298,6.3305,6.3305,6.3305,6.3305,0,6.3337,6.3335,6.3332,6.3331,6.3329,6.3326,6.3326,6.3324,6.3324,6.3324,6.3318,6.3315,6.3309,6.3308,6.3307,6.3301,6.3302,6.3302,6.3302,6.3299,6.3298,6.3297,6.3305,6.3305,6.3305,6.3305,0,0,6.3323,6.3326,6.3325,6.3325,6.3325,6.3322,6.3319,6.3317,6.3315,6.3313,6.331,6.3304,6.3305,6.3301,6.33,6.3298,6.3295,6.3298,6.3298,6.3298,6.3289,6.3289,6.3288,6.3294,6.3294,6.3294,6.329,0,6.3315,6.3312,6.3314,6.331,6.3308,6.3311,6.3309,6.3307,6.3307,6.3305,6.3304,6.33,6.3301,6.33,6.3298,6.3296,6.3293,6.3296,6.3291,6.3291,6.3292,6.3287,6.3287,6.3283,6.3289,6.3289,6.3289,0,6.3305,6.3305,6.3301,6.3304,6.3303,6.3301,6.33,6.3298,6.3297,6.3297,6.3295,6.3296,6.3292,6.3294,6.3289,6.3291,6.329,6.3289,6.3288,6.3287,6.3289,6.3286,6.3281,6.328,6.3288,6.3288,6.3288,0,6.3296,6.3295,6.3294,6.3294,6.3296,6.3294,6.3295,6.3295,6.3294,6.3292,6.3292,6.3289,6.3288,6.3286,6.3285,6.3286,6.328,6.3282,6.328,6.328,6.3277,6.3277,6.3272,6.3277,6.3277,6.3277,6.3277,0,6.3287,6.3284,6.329,6.3289,6.3286,6.3289,6.3287,6.3287,6.3287,6.3286,6.3288,6.3286,6.3285,6.3283,6.3283,6.328,6.3278,6.3278,6.3278,6.3278,6.3278,6.3276,6.3276,6.3277,6.3277,6.3277,6.3277,0,6.3276,6.328,6.3278,6.3282,6.3282,6.328,6.3283,6.3282,6.3283,6.3281,6.328,6.3282,6.328,6.328,6.3276,6.3276,6.3272,6.3272,6.3273,6.3273,6.3271,6.3271,6.3264,6.3263,6.3268,6.3268,6.3268,0,6.3269,6.3268,6.3273,6.3273,6.3274,6.3274,6.3274,6.3278,6.3277,6.3278,6.3277,6.3276,6.3275,6.3271,6.3271,6.3269,6.3269,6.3267,6.3268,6.3269,6.3269,6.3269,6.327,6.3266,6.3266,6.3266,6.3266,0,6.3258,6.326,6.3261,6.3264,6.3265,6.3266,6.3267,6.3267,6.3271,6.327,6.327,6.327,6.3269,6.3267,6.3266,6.3265,6.3266,6.3266,6.3265,6.3265,6.3265,6.3266,6.3272,6.3265,6.3265,6.3265,6.3265,6.3265,6.3249,6.3249,6.3253,6.3254,6.3257,6.3258,6.3258,6.3261,6.3261,6.3262,6.3264,6.3263,6.3264,6.3263,6.3262,6.3261,6.3262,6.3261,6.326,6.326,6.326,6.3267,6.3261,6.3261,6.3261,6.3261,6.3261,0,6.3238,6.3241,6.3243,6.3247,6.3248,6.3252,6.3254,6.3254,6.3255,6.3256,6.3257,6.3257,6.3256,6.3257,6.3257,6.3256,6.3257,6.3256,6.3256,6.3256,6.3259,6.326,6.3256,6.3256,6.3256,6.3256,6.3256,6.3256,6.3232,6.3233,6.3236,6.3238,6.3241,6.3242,6.3244,6.3245,6.3247,6.3248,6.3249,6.325,6.3252,6.3252,6.3252,6.3252,6.3252,6.3251,6.3251,6.3255,6.3255,6.3256,6.3256,6.3251,6.3251,6.3248,6.3248,6.3248]}]]